[[{"header":{"parameterUnit":"m.s-1","parameterCategory":1,"la1":30.2991,"la2":30.254,"lo1":-89.0895,"lo2":-89.0444,"dy":0.0017,"dx":0.0017,"nx":28,"ny":28,"refTime":"2026-01-05T09:00:00:Z","depth":0,"parameterNumber":2,"parameterNumberName":"U-component_of_WINDS"},"data":[0,0,0,0,0,0,0,0,0,0,0,0,0,0,0,0,0,0,0,0,0,0,0,0,0,0,0,0,0,0,0,0,0,0,0,0,0,0,0,0,0,0,0,0,0,0,0,0,0,0,0,0,0,0,0,0,0,0,-0.749,-0.7491,0,-0.7543,-0.7543,-0.7544,-0.7519,-0.7518,-0.7517,-0.7516,-0.7573,-0.7575,-0.7578,0,0,0,0,0,0,0,0,0,0,0,0,0,-0.7371,-0.7374,-0.749,-0.7491,-0.7491,-0.7543,-0.7543,-0.7544,-0.752,-0.7518,-0.7516,-0.7515,-0.7572,-0.7575,-0.7578,0,0,0,0,0,0,0,0,0,0,0,0,0,-0.7424,-0.7374,-0.749,-0.7485,-0.7485,-0.7542,-0.7543,-0.7544,-0.752,-0.7518,-0.7516,-0.7514,-0.7571,-0.7575,-0.7579,-0.7645,0,0,-0.7592,-0.7593,0,0,0,0,0,0,0,0,-0.7421,-0.7428,-0.7485,-0.7486,-0.7486,-0.7522,-0.7522,-0.7578,-0.7521,-0.7507,-0.7515,-0.7513,-0.7558,-0.7563,-0.7577,-0.7647,-0.765,-0.7592,-0.7594,-0.7596,-0.7597,0,0,0,0,0,0,0,-0.7417,-0.7426,-0.7511,-0.7486,-0.7487,-0.7482,-0.7487,-0.7533,-0.7543,-0.7508,-0.7506,-0.7513,-0.7558,-0.7573,-0.7578,-0.7651,-0.7592,-0.7596,-0.7598,-0.76,-0.7777,-0.7779,0,0,0,0,0,0,-0.7413,-0.7423,-0.7509,-0.7513,-0.7448,-0.7485,-0.7491,-0.7513,-0.7543,-0.7545,-0.7514,-0.7511,-0.7567,-0.7574,-0.758,-0.7659,-0.7596,-0.76,-0.7602,-0.7775,-0.7778,-0.778,0,0,0,0,0,0,-0.7411,-0.7421,-0.7507,-0.7467,-0.7478,-0.7489,-0.7514,-0.7515,-0.7531,-0.7547,-0.7549,-0.7528,-0.7566,-0.7575,-0.7629,-0.7661,-0.7602,-0.7606,-0.7772,-0.7776,-0.7779,-0.7818,0,0,0,0,0,0,-0.7407,-0.742,-0.7445,-0.7468,-0.748,-0.7554,-0.7516,-0.7517,-0.7537,-0.7534,-0.7561,-0.7564,-0.7565,-0.7622,-0.7633,-0.7666,-0.7609,-0.7769,-0.7774,-0.7778,-0.7814,-0.7822,-0.7829,0,0,0,0,0,-0.7403,-0.7455,-0.7446,-0.7457,-0.7511,-0.7556,-0.7563,-0.7562,-0.754,-0.7565,-0.7576,-0.7563,-0.7656,-0.7628,-0.7639,-0.7674,-0.7767,-0.7773,-0.7777,-0.781,-0.7821,-0.7829,0,0,0,0,0,0,-0.7437,-0.7458,-0.7449,-0.7509,-0.753,-0.7552,-0.7583,-0.7573,-0.7603,-0.7599,-0.7598,-0.7604,-0.766,-0.7672,-0.7642,-0.7739,-0.7708,-0.7716,-0.7729,-0.7739,-0.7747,-0.7743,-0.7612,0,0,0,0,0,-0.7451,-0.7485,-0.7501,-0.7553,-0.7564,-0.7572,-0.7592,-0.7589,-0.7612,-0.7622,-0.7636,-0.766,-0.7694,-0.7717,-0.775,-0.7815,-0.7821,-0.7845,-0.7852,-0.7859,-0.7866,-0.7901,-0.7912,-0.7796,-0.7796,-0.7796,0,0,-0.7481,-0.7496,-0.7518,-0.756,-0.7577,-0.7613,-0.758,-0.762,-0.7647,-0.7628,-0.768,-0.7691,-0.7718,-0.7777,-0.7805,-0.779,-0.7899,-0.7865,-0.787,-0.7874,-0.7907,-0.7918,-0.7928,-0.78,-0.7799,-0.7799,0,0,-0.7554,-0.7569,-0.7613,-0.763,-0.7655,-0.766,-0.7671,-0.7693,-0.77,-0.7751,-0.7738,-0.777,-0.783,-0.7849,-0.7867,-0.7946,-0.7935,-0.7957,-0.7998,-0.8033,-0.8042,-0.805,-0.8079,-0.8089,-0.7963,-0.7963,-0.7964,0,-0.7589,-0.7642,-0.7638,-0.7678,-0.7698,-0.7681,-0.7726,-0.7743,-0.7778,-0.7792,-0.7774,-0.7848,-0.7865,-0.7929,-0.7948,-0.7963,-0.7976,-0.7954,-0.8041,-0.8049,-0.8056,-0.8084,-0.8095,-0.7966,-0.7966,-0.7965,-0.7965,0,-0.7683,-0.772,-0.7753,-0.7786,-0.7808,-0.7851,-0.7855,-0.7879,-0.7874,-0.7881,-0.7933,-0.7952,-0.7989,-0.8003,-0.8,-0.8067,-0.8057,-0.804,-0.8009,-0.807,-0.8096,-0.8106,-0.797,-0.7969,-0.7968,-0.7967,0,0,-0.7781,-0.781,-0.7822,-0.7837,-0.7862,-0.7891,-0.7933,-0.7967,-0.7988,-0.8012,-0.8048,-0.8098,-0.8082,-0.8102,-0.81,-0.8131,-0.8193,-0.811,-0.811,-0.8125,-0.8269,-0.8283,-0.8295,-0.8185,-0.8187,-0.8189,-0.8267,0,-0.7856,-0.7929,-0.7927,-0.7995,-0.8029,-0.8013,-0.805,-0.807,-0.8077,-0.8108,-0.8116,-0.8152,-0.8128,-0.814,-0.8169,-0.8179,-0.8222,-0.8173,-0.822,-0.8222,-0.8215,-0.8309,-0.8323,-0.8396,-0.8277,-0.8279,-0.828,0,-0.7955,-0.7981,-0.8052,-0.8072,-0.8087,-0.812,-0.8151,-0.818,-0.8203,-0.8206,-0.8227,-0.8221,-0.8264,-0.8231,-0.8291,-0.8258,-0.8277,-0.8285,-0.8288,-0.8293,-0.8256,-0.8318,-0.8419,-0.8431,-0.8296,-0.8295,-0.8294,0,-0.802,-0.8073,-0.8122,-0.8135,-0.816,-0.8183,-0.8195,-0.8215,-0.8236,-0.8263,-0.8277,-0.8309,-0.8327,-0.8353,-0.8355,-0.833,-0.8416,-0.8383,-0.8421,-0.8421,-0.8441,-0.844,-0.8549,-0.8451,-0.8451,-0.8451,-0.8451,0,-0.8105,-0.815,-0.8152,-0.8182,-0.8232,-0.8228,-0.8278,-0.8287,-0.8305,-0.8338,-0.8326,-0.8358,-0.8358,-0.8391,-0.8393,-0.8443,-0.8451,-0.8455,-0.8456,-0.8457,-0.8457,-0.8471,-0.8466,-0.8454,-0.8453,-0.8453,-0.8452,0,-0.8187,-0.819,-0.8243,-0.8261,-0.8267,-0.8302,-0.8319,-0.8348,-0.8353,-0.8395,-0.8405,-0.8414,-0.8451,-0.8455,-0.8499,-0.85,-0.8561,-0.8555,-0.8553,-0.8553,-0.8591,-0.8588,-0.8713,-0.873,-0.8621,-0.8622,-0.8622,0,-0.8242,-0.8276,-0.8297,-0.8317,-0.833,-0.8363,-0.8383,-0.8381,-0.8403,-0.8431,-0.8458,-0.8493,-0.8522,-0.8582,-0.8593,-0.8627,-0.8622,-0.8664,-0.8627,-0.8628,-0.8624,-0.8622,-0.8626,-0.8671,-0.8673,-0.8674,-0.8674,0,-0.834,-0.8339,-0.8368,-0.8398,-0.8422,-0.8446,-0.8468,-0.8486,-0.8487,-0.8512,-0.8549,-0.8571,-0.8615,-0.8651,-0.8683,-0.8696,-0.8686,-0.8685,-0.8696,-0.8699,-0.8696,-0.8699,-0.8573,-0.8683,-0.8682,-0.8682,-0.8681,-0.8681,-0.841,-0.8439,-0.8459,-0.8492,-0.8508,-0.8528,-0.8557,-0.8565,-0.8596,-0.863,-0.8627,-0.8668,-0.869,-0.8733,-0.8748,-0.8781,-0.8767,-0.8783,-0.8787,-0.8791,-0.8795,-0.869,-0.8786,-0.8786,-0.8786,-0.8786,-0.8786,0,-0.8508,-0.8519,-0.8549,-0.858,-0.8606,-0.8592,-0.8616,-0.8639,-0.8675,-0.8695,-0.8723,-0.8766,-0.88,-0.8813,-0.8847,-0.8871,-0.8867,-0.888,-0.8879,-0.8882,-0.8805,-0.8792,-0.8882,-0.8882,-0.8882,-0.8882,-0.8882,-0.8882,-0.8562,-0.861,-0.8612,-0.8668,-0.868,-0.8719,-0.8734,-0.8753,-0.8769,-0.8817,-0.8845,-0.8852,-0.887,-0.8905,-0.8936,-0.8939,-0.8953,-0.8968,-0.897,-0.8897,-0.8888,-0.8878,-0.8867,-0.8971,-0.8971,-0.9044,-0.9045,-0.9045]},{"header":{"parameterUnit":"m.s-1","parameterCategory":1,"la1":30.2991,"la2":30.254,"lo1":-89.0895,"lo2":-89.0444,"dy":0.0017,"dx":0.0017,"nx":28,"ny":28,"refTime":"2026-01-05T09:00:00:Z","depth":0,"parameterNumber":3,"parameterNumberName":"V-component_of_WINDS"},"data":[0,0,0,0,0,0,0,0,0,0,0,0,0,0,0,0,0,0,0,0,0,0,0,0,0,0,0,0,0,0,0,0,0,0,0,0,0,0,0,0,0,0,0,0,0,0,0,0,0,0,0,0,0,0,0,0,0,0,-1.003,-1.003,0,-1.0092,-1.0093,-1.0093,-1.0097,-1.0096,-1.0095,-1.0095,-1.016,-1.0162,-1.0165,0,0,0,0,0,0,0,0,0,0,0,0,0,-0.9914,-0.9916,-1.0029,-1.003,-1.0031,-1.0092,-1.0093,-1.0094,-1.0097,-1.0096,-1.0095,-1.0094,-1.0159,-1.0162,-1.0165,0,0,0,0,0,0,0,0,0,0,0,0,0,-0.9969,-0.9917,-1.0029,-1.004,-1.0042,-1.0092,-1.0093,-1.0094,-1.0097,-1.0096,-1.0095,-1.0094,-1.0158,-1.0162,-1.0165,-1.0209,0,0,-1.0177,-1.0178,0,0,0,0,0,0,0,0,-0.9966,-0.9974,-1.0038,-1.0039,-1.0041,-1.0085,-1.0076,-1.0133,-1.0097,-1.0076,-1.0095,-1.0093,-1.0136,-1.0142,-1.0156,-1.0213,-1.0215,-1.0177,-1.0179,-1.0181,-1.0182,0,0,0,0,0,0,0,-0.9962,-0.9971,-1.0054,-1.0039,-1.0041,-1.0042,-1.0049,-1.0087,-1.0112,-1.0078,-1.0078,-1.0086,-1.0137,-1.0152,-1.0157,-1.0216,-1.0177,-1.018,-1.0182,-1.0184,-1.0312,-1.0313,0,0,0,0,0,0,-0.9956,-0.9968,-1.0052,-1.0056,-1.0,-1.0045,-1.0052,-1.0072,-1.0111,-1.0116,-1.0086,-1.0086,-1.0147,-1.0153,-1.016,-1.0214,-1.0181,-1.0184,-1.0186,-1.0311,-1.0312,-1.0314,0,0,0,0,0,0,-0.9954,-0.9964,-1.005,-1.0012,-1.0023,-1.0048,-1.0071,-1.0074,-1.0089,-1.0118,-1.0122,-1.0097,-1.0146,-1.0155,-1.0197,-1.0216,-1.0186,-1.0189,-1.0309,-1.0311,-1.0313,-1.0322,0,0,0,0,0,0,-0.9951,-0.9963,-0.998,-1.0012,-1.0025,-1.0086,-1.0072,-1.0076,-1.0095,-1.0095,-1.0129,-1.0134,-1.0146,-1.0191,-1.0201,-1.0221,-1.0192,-1.0308,-1.031,-1.0313,-1.032,-1.0324,-1.0328,0,0,0,0,0,-0.9946,-0.998,-0.9981,-0.9991,-1.0047,-1.0087,-1.0094,-1.0107,-1.0097,-1.0114,-1.0132,-1.0133,-1.0212,-1.0196,-1.0206,-1.0227,-1.0307,-1.031,-1.0312,-1.0319,-1.0324,-1.0328,0,0,0,0,0,0,-0.995,-0.9985,-0.9986,-1.0031,-1.0056,-1.0087,-1.011,-1.0112,-1.014,-1.0139,-1.0154,-1.0161,-1.0203,-1.022,-1.0201,-1.0272,-1.0258,-1.0263,-1.026,-1.0265,-1.0268,-1.0264,-1.0195,0,0,0,0,0,-0.9956,-0.9985,-1.0014,-1.0051,-1.0064,-1.0084,-1.0102,-1.011,-1.0137,-1.0148,-1.0169,-1.0195,-1.0226,-1.0246,-1.0276,-1.0323,-1.033,-1.0342,-1.0346,-1.0349,-1.0353,-1.0379,-1.0385,-1.0323,-1.0323,-1.0323,0,0,-0.9969,-0.9991,-1.0009,-1.0053,-1.0073,-1.0103,-1.0093,-1.0126,-1.0149,-1.0153,-1.0194,-1.021,-1.0241,-1.0285,-1.0306,-1.03,-1.0371,-1.0352,-1.0354,-1.0357,-1.0382,-1.0388,-1.0393,-1.0325,-1.0325,-1.0324,0,0,-1.0008,-1.0027,-1.0061,-1.0081,-1.0111,-1.0125,-1.0133,-1.0164,-1.0175,-1.0216,-1.0219,-1.0247,-1.03,-1.0321,-1.0339,-1.0385,-1.0387,-1.0395,-1.0414,-1.0439,-1.0444,-1.0448,-1.0465,-1.0471,-1.0399,-1.0399,-1.0399,0,-1.002,-1.0066,-1.0078,-1.011,-1.0129,-1.0133,-1.0167,-1.0186,-1.0225,-1.0238,-1.0231,-1.0297,-1.0318,-1.0368,-1.0379,-1.0393,-1.0403,-1.0391,-1.0442,-1.0446,-1.0451,-1.0467,-1.0473,-1.04,-1.04,-1.0399,-1.0399,0,-1.0079,-1.0111,-1.0134,-1.0171,-1.0192,-1.0226,-1.0243,-1.0263,-1.0269,-1.0283,-1.0325,-1.035,-1.0385,-1.0397,-1.0403,-1.0448,-1.0443,-1.0439,-1.0426,-1.0457,-1.0473,-1.0479,-1.0401,-1.0401,-1.04,-1.04,0,0,-1.0123,-1.0166,-1.0174,-1.0191,-1.0224,-1.0249,-1.0282,-1.0316,-1.0333,-1.036,-1.0388,-1.0433,-1.0428,-1.0449,-1.0457,-1.0479,-1.0514,-1.0472,-1.0473,-1.0479,-1.0565,-1.0569,-1.0576,-1.0515,-1.0516,-1.0517,-1.0563,0,-1.0166,-1.0225,-1.0236,-1.0288,-1.0317,-1.0321,-1.035,-1.0373,-1.0387,-1.0415,-1.043,-1.0462,-1.0453,-1.0466,-1.0487,-1.0505,-1.0532,-1.0502,-1.0542,-1.0543,-1.0535,-1.0584,-1.0588,-1.063,-1.0569,-1.057,-1.0571,0,-1.0225,-1.0252,-1.0306,-1.0335,-1.0348,-1.0374,-1.0405,-1.0431,-1.0458,-1.0467,-1.0489,-1.0495,-1.0529,-1.0514,-1.0563,-1.0542,-1.0559,-1.057,-1.0572,-1.0577,-1.056,-1.0591,-1.0644,-1.065,-1.058,-1.0579,-1.0579,0,-1.0252,-1.0302,-1.0341,-1.0355,-1.039,-1.0408,-1.0423,-1.0449,-1.0469,-1.0496,-1.0509,-1.0541,-1.0558,-1.0583,-1.0597,-1.0584,-1.0644,-1.063,-1.0653,-1.0653,-1.0666,-1.0665,-1.0723,-1.0676,-1.0676,-1.0676,-1.0676,0,-1.03,-1.0333,-1.0354,-1.0377,-1.0414,-1.0427,-1.0463,-1.0479,-1.0502,-1.0529,-1.0534,-1.0559,-1.0576,-1.0604,-1.0615,-1.0654,-1.0662,-1.067,-1.0673,-1.067,-1.0669,-1.0682,-1.068,-1.0678,-1.0677,-1.0677,-1.0677,0,-1.0337,-1.0352,-1.0395,-1.0424,-1.0432,-1.0458,-1.0483,-1.0506,-1.052,-1.0554,-1.0563,-1.0585,-1.0618,-1.0634,-1.0675,-1.0683,-1.0727,-1.0727,-1.0718,-1.0719,-1.0741,-1.0739,-1.081,-1.082,-1.0765,-1.0766,-1.0766,0,-1.0367,-1.0392,-1.0423,-1.0442,-1.0457,-1.0487,-1.0506,-1.0519,-1.054,-1.0572,-1.0592,-1.0625,-1.0652,-1.0705,-1.0724,-1.0756,-1.0758,-1.0781,-1.0763,-1.0759,-1.0759,-1.0758,-1.076,-1.0784,-1.0785,-1.0785,-1.0785,0,-1.0418,-1.0424,-1.0452,-1.0482,-1.0505,-1.0529,-1.0554,-1.0569,-1.0586,-1.0608,-1.0642,-1.0663,-1.0704,-1.0738,-1.077,-1.0787,-1.0789,-1.0791,-1.0798,-1.0796,-1.0789,-1.0794,-1.0727,-1.0789,-1.0789,-1.0789,-1.0788,-1.0788,-1.0453,-1.0475,-1.0501,-1.0532,-1.0551,-1.0573,-1.0597,-1.0613,-1.0641,-1.0675,-1.0681,-1.0717,-1.0743,-1.0787,-1.0805,-1.0833,-1.0828,-1.0838,-1.0841,-1.0844,-1.0845,-1.0784,-1.0839,-1.0839,-1.0839,-1.0839,-1.0839,0,-1.0505,-1.0521,-1.0549,-1.0582,-1.0606,-1.0605,-1.0632,-1.0652,-1.0684,-1.0707,-1.0734,-1.0772,-1.0804,-1.0826,-1.0858,-1.0877,-1.0879,-1.0885,-1.0884,-1.0888,-1.0847,-1.0838,-1.0883,-1.0883,-1.0883,-1.0883,-1.0883,-1.0883,-1.0535,-1.0573,-1.0582,-1.063,-1.0646,-1.068,-1.0696,-1.0717,-1.0736,-1.0778,-1.0804,-1.0818,-1.0841,-1.0875,-1.0904,-1.091,-1.0922,-1.0928,-1.0934,-1.0896,-1.0891,-1.0887,-1.0878,-1.0931,-1.0931,-1.0973,-1.0973,-1.0973]}]]